Aviation Digital Data Service (ADDS)

Output produced by METARs form (0057 UTC 22 September 2017)
found at http://www.aviationweather.gov/adds/metars/
 
OIAA 220000Z 13002KT CAVOK 26/22 Q1003
TAF OIAA 212300Z 2200/2306 13003MPS CAVOK 
     BECMG 2201/2202 2500 BR NSC 
     BECMG 2205/2206 8000 NSC 
     BECMG 2222/2224 34004MPS 
     PROB30 2302/2306 5000 HZ NSC
       
OIAG 212000Z 14006KT CAVOK 31/16 Q1003
OIAW 220000Z 00000KT 8000 NSC 25/17 Q1003
TAF OIAW 212300Z 2200/2306 14003MPS CAVOK
       
OITL 212350Z 25004KT 9999 FEW008 11/08 Q1019
OIAA 220000Z 13002KT CAVOK 26/22 Q1003
TAF OIAA 212300Z 2200/2306 13003MPS CAVOK 
     BECMG 2201/2202 2500 BR NSC 
     BECMG 2205/2206 8000 NSC 
     BECMG 2222/2224 34004MPS 
     PROB30 2302/2306 5000 HZ NSC
       
OIAG 212000Z 14006KT CAVOK 31/16 Q1003
OIAH 220000Z 00000KT CAVOK 22/04 Q1010
OIAI 212000Z 09006KT CAVOK 31/M02 Q1005
OIAM 220000Z 12006KT 8000 NSC 30/25 Q1003
OIAW 220000Z 00000KT 8000 NSC 25/17 Q1003
TAF OIAW 212300Z 2200/2306 14003MPS CAVOK
       
OIBB 212351Z 00000KT CAVOK 29/21 Q1003 A2963
OIBK 220000Z 00000KT CAVOK 29/22 Q1002
TAF OIBK 212300Z 2200/2306 33003MPS 6000 NSC 
     BECMG 2204/2206 11005MPS 
     BECMG 2216/2218 30003MPS 
     BECMG 2304/2306 11005MPS
       
OIBL 220000Z 09006KT CAVOK 27/06 Q1003
OIBP 220000Z 12004KT CAVOK 26/21 Q1001 A2957
OICC 212351Z 24004KT CAVOK 16/M11 Q1017 A3003
OICI 220000Z 12004KT CAVOK 21/M04 Q1016 A3002
TAF OICI 212300Z 2200/2306 06003MPS CAVOK 
     BECMG 2210/2212 32006MPS
       
OICJ 212250Z AUTO 33004KT //// // ////// 18/M05 Q1020
OICK 212350Z 12006KT CAVOK 20/M09 Q1015
OICS 212354Z 01002KT CAVOK 16/M00 Q1018
OIFK 212300Z 00000KT CAVOK 16/00 Q1014
OIFM 220030Z 32006KT CAVOK 10/M08 Q1019 A3011
TAF OIFM 212300Z 2200/2306 16004MPS CAVOK 
     PROB30 2202/2206 4000 HZ NSC
       
OIFS 220000Z 32002KT CAVOK 04/M08 Q1023
OIGG 220000Z 00000KT 1500 BR NSC 19/18 Q1011
OIGK 212250Z AUTO 13004KT //// // ////// 11/M02 Q1022
OIHH 212350Z 00000KT CAVOK 10/M07 Q1021
OIHM 211950Z 14004KT CAVOK 16/M05 Q1021
OIIE 220000Z 29004KT CAVOK 18/M05 Q1015
TAF OIIE 212300Z 2200/2306 30004MPS CAVOK
       
OIII 220030Z 33004KT CAVOK 22/M06 Q1017 A3002 NOSIG
TAF OIII 212300Z 2200/2306 33004MPS CAVOK
       
OIIK 212300Z 29004KT CAVOK 16/M01 Q1017
OIIS 212300Z 09002KT CAVOK 18/M09 Q1017
OIKB 220000Z 33006KT CAVOK 28/17 Q1003 A2963
TAF OIKB 212300Z 2200/2306 34003MPS 4000 HZ NSC 
     BECMG 2207/2208 20007MPS 7000 
     BECMG 2214/2216 34003MPS 
     BECMG 2220/2222 4000 HZ
       
OIKK 220000Z 14006KT CAVOK 08/M15 Q1020 A3012
TAF OIKK 212300Z 2200/2306 34003MPS CAVOK 
     TEMPO 2207/2215 34008MPS
       
OIKO 212250Z 00000KT CAVOK 23/07 Q1003
OIKQ 220000Z 03006KT 7000 NSC 28/23 Q1003
OIMB 220000Z 12008KT CAVOK 09/M08 Q1017
OIMC 220000Z AUTO 00000KT //// // ////// 16/02 Q1012
OIMD 220000Z AUTO 13002KT //// // ////// 16/M04 Q1013
OIMM 220000Z 00000KT CAVOK 15/01 Q1016 A3003
TAF OIMM 212300Z 2200/2306 13004MPS CAVOK 
     TEMPO 2212/2218 06007MPS
       
OIMN 220000Z 00000KT CAVOK 11/01 Q1018
OIMQ 220000Z AUTO 06004KT //// // ////// 19/M01 Q1016
OINB 212000Z 18006KT CAVOK 23/21 Q1011
OINE 220000Z 00000KT CAVOK 19/10 Q1012
OING 220000Z 19006KT CAVOK 20/17 Q1013
OINN 220000Z 21004KT CAVOK 21/16 Q1011
OINR 220000Z 24004KT CAVOK 23/18 Q1010
OINZ 220000Z 17004KT CAVOK 19/18 Q1012
OISA 212300Z 00000KT CAVOK 09/M13 Q1023
OISF 220000Z 30006KT CAVOK 13/M08 Q1013
OISL 220000Z 00000KT CAVOK 17/04 Q1009
TAF OISL 212300Z 2200/2306 24003MPS CAVOK
       
OISS 220030Z 00000KT CAVOK 13/M04 Q1017 A3005
TAF OISS 212300Z 2200/2306 14004MPS CAVOK
       
OISY 220000Z 00000KT CAVOK 13/M07 Q1020
OITL 212350Z 25004KT 9999 FEW008 11/08 Q1019
OITM 220000Z 07010KT CAVOK 21/04 Q1017
OITP 212300Z AUTO 34002KT //// // ////// 19/19 Q1011
OITR 220000Z 27006KT 9999 FEW040 15/05 Q1017
TAF OITR 212300Z 2200/2306 24003MPS 8000 FEW035 SCT100 
     BECMG 2209/2210 FEW035CB SCT100 
     TEMPO 2210/2218 24008MPS TS SCT030CB SCT035 SCT100 
     BECMG 2218/2220 FEW035 SCT100
       
OITT 220030Z VRB02KT 9999 FEW030 19/02 Q1018 A3007
TAF OITT 212300Z 2200/2306 08004MPS 8000 FEW035 SCT100 
     BECMG 2210/2212 FEW035CB SCT100 
     TEMPO 2212/2218 08009MPS TS SCT035CB SCT100 
     BECMG 2300/2302 FEW035 SCT100
       
OITU 211951Z 27004KT 9999 SCT040 21/08 Q1019
OITZ 220000Z 09010KT CAVOK 16/M01 Q1019
OIYY 220000Z 21004KT CAVOK 16/M11 Q1018
OIZB 220000Z 33016KT CAVOK 24/01 Q1007
OIZH 220000Z 16004KT CAVOK 12/M08 Q1015 A3000
TAF OIZH 212300Z 2200/2306 17003MPS CAVOK 
     TEMPO 2215/2220 35006MPS
       
OIZI 220000Z 03004KT CAVOK 22/M10 Q1008
OIZJ 220000Z 35008KT 7000 NSC 29/14 Q1002
OIAA 220000Z 13002KT CAVOK 26/22 Q1003
TAF OIAA 212300Z 2200/2306 13003MPS CAVOK 
     BECMG 2201/2202 2500 BR NSC 
     BECMG 2205/2206 8000 NSC 
     BECMG 2222/2224 34004MPS 
     PROB30 2302/2306 5000 HZ NSC
       
OIAG 212000Z 14006KT CAVOK 31/16 Q1003
OIAH 220000Z 00000KT CAVOK 22/04 Q1010
OIAI 212000Z 09006KT CAVOK 31/M02 Q1005
OIAM 220000Z 12006KT 8000 NSC 30/25 Q1003
OIAW 220000Z 00000KT 8000 NSC 25/17 Q1003
TAF OIAW 212300Z 2200/2306 14003MPS CAVOK
       
OIBB 212351Z 00000KT CAVOK 29/21 Q1003 A2963
OIBK 220000Z 00000KT CAVOK 29/22 Q1002
TAF OIBK 212300Z 2200/2306 33003MPS 6000 NSC 
     BECMG 2204/2206 11005MPS 
     BECMG 2216/2218 30003MPS 
     BECMG 2304/2306 11005MPS
       
OIBL 220000Z 09006KT CAVOK 27/06 Q1003
OIBP 220000Z 12004KT CAVOK 26/21 Q1001 A2957
OICC 212351Z 24004KT CAVOK 16/M11 Q1017 A3003
OICI 220000Z 12004KT CAVOK 21/M04 Q1016 A3002
TAF OICI 212300Z 2200/2306 06003MPS CAVOK 
     BECMG 2210/2212 32006MPS
       
OICJ 212250Z AUTO 33004KT //// // ////// 18/M05 Q1020
OICK 212350Z 12006KT CAVOK 20/M09 Q1015
OICS 212354Z 01002KT CAVOK 16/M00 Q1018
OIFK 212300Z 00000KT CAVOK 16/00 Q1014
OIFM 220030Z 32006KT CAVOK 10/M08 Q1019 A3011
TAF OIFM 212300Z 2200/2306 16004MPS CAVOK 
     PROB30 2202/2206 4000 HZ NSC
       
OIFS 220000Z 32002KT CAVOK 04/M08 Q1023
OIGG 220000Z 00000KT 1500 BR NSC 19/18 Q1011
OIGK 212250Z AUTO 13004KT //// // ////// 11/M02 Q1022
OIHH 212350Z 00000KT CAVOK 10/M07 Q1021
OIHM 211950Z 14004KT CAVOK 16/M05 Q1021
OIIE 220000Z 29004KT CAVOK 18/M05 Q1015
TAF OIIE 212300Z 2200/2306 30004MPS CAVOK
       
OIII 220030Z 33004KT CAVOK 22/M06 Q1017 A3002 NOSIG
TAF OIII 212300Z 2200/2306 33004MPS CAVOK
       
OIIK 212300Z 29004KT CAVOK 16/M01 Q1017
OIIS 212300Z 09002KT CAVOK 18/M09 Q1017
OIKB 220000Z 33006KT CAVOK 28/17 Q1003 A2963
TAF OIKB 212300Z 2200/2306 34003MPS 4000 HZ NSC 
     BECMG 2207/2208 20007MPS 7000 
     BECMG 2214/2216 34003MPS 
     BECMG 2220/2222 4000 HZ
       
OIKK 220000Z 14006KT CAVOK 08/M15 Q1020 A3012
TAF OIKK 212300Z 2200/2306 34003MPS CAVOK 
     TEMPO 2207/2215 34008MPS
       
OIKO 212250Z 00000KT CAVOK 23/07 Q1003
OIKQ 220000Z 03006KT 7000 NSC 28/23 Q1003
OIMB 220000Z 12008KT CAVOK 09/M08 Q1017
OIMC 220000Z AUTO 00000KT //// // ////// 16/02 Q1012
OIMD 220000Z AUTO 13002KT //// // ////// 16/M04 Q1013
OIMM 220000Z 00000KT CAVOK 15/01 Q1016 A3003
TAF OIMM 212300Z 2200/2306 13004MPS CAVOK 
     TEMPO 2212/2218 06007MPS
       
OIMN 220000Z 00000KT CAVOK 11/01 Q1018
OIMQ 220000Z AUTO 06004KT //// // ////// 19/M01 Q1016
OINB 212000Z 18006KT CAVOK 23/21 Q1011
OINE 220000Z 00000KT CAVOK 19/10 Q1012
OING 220000Z 19006KT CAVOK 20/17 Q1013
OINN 220000Z 21004KT CAVOK 21/16 Q1011
OINR 220000Z 24004KT CAVOK 23/18 Q1010
OINZ 220000Z 17004KT CAVOK 19/18 Q1012
OISA 212300Z 00000KT CAVOK 09/M13 Q1023
OISF 220000Z 30006KT CAVOK 13/M08 Q1013
OISL 220000Z 00000KT CAVOK 17/04 Q1009
TAF OISL 212300Z 2200/2306 24003MPS CAVOK
       
OISS 220030Z 00000KT CAVOK 13/M04 Q1017 A3005
TAF OISS 212300Z 2200/2306 14004MPS CAVOK
       
OISY 220000Z 00000KT CAVOK 13/M07 Q1020
OITL 212350Z 25004KT 9999 FEW008 11/08 Q1019
OITM 220000Z 07010KT CAVOK 21/04 Q1017
OITP 212300Z AUTO 34002KT //// // ////// 19/19 Q1011
OITR 220000Z 27006KT 9999 FEW040 15/05 Q1017
TAF OITR 212300Z 2200/2306 24003MPS 8000 FEW035 SCT100 
     BECMG 2209/2210 FEW035CB SCT100 
     TEMPO 2210/2218 24008MPS TS SCT030CB SCT035 SCT100 
     BECMG 2218/2220 FEW035 SCT100
       
OITT 220030Z VRB02KT 9999 FEW030 19/02 Q1018 A3007
TAF OITT 212300Z 2200/2306 08004MPS 8000 FEW035 SCT100 
     BECMG 2210/2212 FEW035CB SCT100 
     TEMPO 2212/2218 08009MPS TS SCT035CB SCT100 
     BECMG 2300/2302 FEW035 SCT100
       
OITU 211951Z 27004KT 9999 SCT040 21/08 Q1019
OITZ 220000Z 09010KT CAVOK 16/M01 Q1019
OIYY 220000Z 21004KT CAVOK 16/M11 Q1018
OIZB 220000Z 33016KT CAVOK 24/01 Q1007
OIZH 220000Z 16004KT CAVOK 12/M08 Q1015 A3000
TAF OIZH 212300Z 2200/2306 17003MPS CAVOK 
     TEMPO 2215/2220 35006MPS
       
OIZI 220000Z 03004KT CAVOK 22/M10 Q1008
OIZJ 220000Z 35008KT 7000 NSC 29/14 Q1002
OIKB 220000Z 33006KT CAVOK 28/17 Q1003 A2963
TAF OIKB 212300Z 2200/2306 34003MPS 4000 HZ NSC 
     BECMG 2207/2208 20007MPS 7000 
     BECMG 2214/2216 34003MPS 
     BECMG 2220/2222 4000 HZ
       
OIBL 220000Z 09006KT CAVOK 27/06 Q1003
OIAA 220000Z 13002KT CAVOK 26/22 Q1003
TAF OIAA 212300Z 2200/2306 13003MPS CAVOK 
     BECMG 2201/2202 2500 BR NSC 
     BECMG 2205/2206 8000 NSC 
     BECMG 2222/2224 34004MPS 
     PROB30 2302/2306 5000 HZ NSC
       
OIAG 212000Z 14006KT CAVOK 31/16 Q1003
OIAH 220000Z 00000KT CAVOK 22/04 Q1010
OIAI 212000Z 09006KT CAVOK 31/M02 Q1005
OIAM 220000Z 12006KT 8000 NSC 30/25 Q1003
OIAW 220000Z 00000KT 8000 NSC 25/17 Q1003
TAF OIAW 212300Z 2200/2306 14003MPS CAVOK
       
OIBB 212351Z 00000KT CAVOK 29/21 Q1003 A2963
OIBK 220000Z 00000KT CAVOK 29/22 Q1002
TAF OIBK 212300Z 2200/2306 33003MPS 6000 NSC 
     BECMG 2204/2206 11005MPS 
     BECMG 2216/2218 30003MPS 
     BECMG 2304/2306 11005MPS
       
OIBL 220000Z 09006KT CAVOK 27/06 Q1003
OIBP 220000Z 12004KT CAVOK 26/21 Q1001 A2957
OICC 212351Z 24004KT CAVOK 16/M11 Q1017 A3003
OICI 220000Z 12004KT CAVOK 21/M04 Q1016 A3002
TAF OICI 212300Z 2200/2306 06003MPS CAVOK 
     BECMG 2210/2212 32006MPS
       
OICJ 212250Z AUTO 33004KT //// // ////// 18/M05 Q1020
OICK 212350Z 12006KT CAVOK 20/M09 Q1015
OICS 212354Z 01002KT CAVOK 16/M00 Q1018
OIFK 212300Z 00000KT CAVOK 16/00 Q1014
OIFM 220030Z 32006KT CAVOK 10/M08 Q1019 A3011
TAF OIFM 212300Z 2200/2306 16004MPS CAVOK 
     PROB30 2202/2206 4000 HZ NSC
       
OIFS 220000Z 32002KT CAVOK 04/M08 Q1023
OIGG 220000Z 00000KT 1500 BR NSC 19/18 Q1011
OIGK 212250Z AUTO 13004KT //// // ////// 11/M02 Q1022
OIHH 212350Z 00000KT CAVOK 10/M07 Q1021
OIHM 211950Z 14004KT CAVOK 16/M05 Q1021
OIIE 220000Z 29004KT CAVOK 18/M05 Q1015
TAF OIIE 212300Z 2200/2306 30004MPS CAVOK
       
OIII 220030Z 33004KT CAVOK 22/M06 Q1017 A3002 NOSIG
TAF OIII 212300Z 2200/2306 33004MPS CAVOK
       
OIIK 212300Z 29004KT CAVOK 16/M01 Q1017
OIIS 212300Z 09002KT CAVOK 18/M09 Q1017
OIKB 220000Z 33006KT CAVOK 28/17 Q1003 A2963
TAF OIKB 212300Z 2200/2306 34003MPS 4000 HZ NSC 
     BECMG 2207/2208 20007MPS 7000 
     BECMG 2214/2216 34003MPS 
     BECMG 2220/2222 4000 HZ
       
OIKK 220000Z 14006KT CAVOK 08/M15 Q1020 A3012
TAF OIKK 212300Z 2200/2306 34003MPS CAVOK 
     TEMPO 2207/2215 34008MPS
       
OIKO 212250Z 00000KT CAVOK 23/07 Q1003
OIKQ 220000Z 03006KT 7000 NSC 28/23 Q1003
OIMB 220000Z 12008KT CAVOK 09/M08 Q1017
OIMC 220000Z AUTO 00000KT //// // ////// 16/02 Q1012
OIMD 220000Z AUTO 13002KT //// // ////// 16/M04 Q1013
OIMM 220000Z 00000KT CAVOK 15/01 Q1016 A3003
TAF OIMM 212300Z 2200/2306 13004MPS CAVOK 
     TEMPO 2212/2218 06007MPS
       
OIMN 220000Z 00000KT CAVOK 11/01 Q1018
OIMQ 220000Z AUTO 06004KT //// // ////// 19/M01 Q1016
OINB 212000Z 18006KT CAVOK 23/21 Q1011
OINE 220000Z 00000KT CAVOK 19/10 Q1012
OING 220000Z 19006KT CAVOK 20/17 Q1013
OINN 220000Z 21004KT CAVOK 21/16 Q1011
OINR 220000Z 24004KT CAVOK 23/18 Q1010
OINZ 220000Z 17004KT CAVOK 19/18 Q1012
OISA 212300Z 00000KT CAVOK 09/M13 Q1023
OISF 220000Z 30006KT CAVOK 13/M08 Q1013
OISL 220000Z 00000KT CAVOK 17/04 Q1009
TAF OISL 212300Z 2200/2306 24003MPS CAVOK
       
OISS 220030Z 00000KT CAVOK 13/M04 Q1017 A3005
TAF OISS 212300Z 2200/2306 14004MPS CAVOK
       
OISY 220000Z 00000KT CAVOK 13/M07 Q1020
OITL 212350Z 25004KT 9999 FEW008 11/08 Q1019
OITM 220000Z 07010KT CAVOK 21/04 Q1017
OITP 212300Z AUTO 34002KT //// // ////// 19/19 Q1011
OITR 220000Z 27006KT 9999 FEW040 15/05 Q1017
TAF OITR 212300Z 2200/2306 24003MPS 8000 FEW035 SCT100 
     BECMG 2209/2210 FEW035CB SCT100 
     TEMPO 2210/2218 24008MPS TS SCT030CB SCT035 SCT100 
     BECMG 2218/2220 FEW035 SCT100
       
OITT 220030Z VRB02KT 9999 FEW030 19/02 Q1018 A3007
TAF OITT 212300Z 2200/2306 08004MPS 8000 FEW035 SCT100 
     BECMG 2210/2212 FEW035CB SCT100 
     TEMPO 2212/2218 08009MPS TS SCT035CB SCT100 
     BECMG 2300/2302 FEW035 SCT100
       
OITU 211951Z 27004KT 9999 SCT040 21/08 Q1019
OITZ 220000Z 09010KT CAVOK 16/M01 Q1019
OIYY 220000Z 21004KT CAVOK 16/M11 Q1018
OIZB 220000Z 33016KT CAVOK 24/01 Q1007
OIZH 220000Z 16004KT CAVOK 12/M08 Q1015 A3000
TAF OIZH 212300Z 2200/2306 17003MPS CAVOK 
     TEMPO 2215/2220 35006MPS
       
OIZI 220000Z 03004KT CAVOK 22/M10 Q1008
OIZJ 220000Z 35008KT 7000 NSC 29/14 Q1002
OIMB 220000Z 12008KT CAVOK 09/M08 Q1017
OIMN 220000Z 00000KT CAVOK 11/01 Q1018
OIBB 212351Z 00000KT CAVOK 29/21 Q1003 A2963
OIKQ 220000Z 03006KT 7000 NSC 28/23 Q1003
OIAA 220000Z 13002KT CAVOK 26/22 Q1003
TAF OIAA 212300Z 2200/2306 13003MPS CAVOK 
     BECMG 2201/2202 2500 BR NSC 
     BECMG 2205/2206 8000 NSC 
     BECMG 2222/2224 34004MPS 
     PROB30 2302/2306 5000 HZ NSC
       
OIAG 212000Z 14006KT CAVOK 31/16 Q1003
OIAH 220000Z 00000KT CAVOK 22/04 Q1010
OIAI 212000Z 09006KT CAVOK 31/M02 Q1005
OIAM 220000Z 12006KT 8000 NSC 30/25 Q1003
OIAW 220000Z 00000KT 8000 NSC 25/17 Q1003
TAF OIAW 212300Z 2200/2306 14003MPS CAVOK
       
OIBB 212351Z 00000KT CAVOK 29/21 Q1003 A2963
OIBK 220000Z 00000KT CAVOK 29/22 Q1002
TAF OIBK 212300Z 2200/2306 33003MPS 6000 NSC 
     BECMG 2204/2206 11005MPS 
     BECMG 2216/2218 30003MPS 
     BECMG 2304/2306 11005MPS
       
OIBL 220000Z 09006KT CAVOK 27/06 Q1003
OIBP 220000Z 12004KT CAVOK 26/21 Q1001 A2957
OICC 212351Z 24004KT CAVOK 16/M11 Q1017 A3003
OICI 220000Z 12004KT CAVOK 21/M04 Q1016 A3002
TAF OICI 212300Z 2200/2306 06003MPS CAVOK 
     BECMG 2210/2212 32006MPS
       
OICJ 212250Z AUTO 33004KT //// // ////// 18/M05 Q1020
OICK 212350Z 12006KT CAVOK 20/M09 Q1015
OICS 212354Z 01002KT CAVOK 16/M00 Q1018
OIFK 212300Z 00000KT CAVOK 16/00 Q1014
OIFM 220030Z 32006KT CAVOK 10/M08 Q1019 A3011
TAF OIFM 212300Z 2200/2306 16004MPS CAVOK 
     PROB30 2202/2206 4000 HZ NSC
       
OIFS 220000Z 32002KT CAVOK 04/M08 Q1023
OIGG 220000Z 00000KT 1500 BR NSC 19/18 Q1011
OIGK 212250Z AUTO 13004KT //// // ////// 11/M02 Q1022
OIHH 212350Z 00000KT CAVOK 10/M07 Q1021
OIHM 211950Z 14004KT CAVOK 16/M05 Q1021
OIIE 220000Z 29004KT CAVOK 18/M05 Q1015
TAF OIIE 212300Z 2200/2306 30004MPS CAVOK
       
OIII 220030Z 33004KT CAVOK 22/M06 Q1017 A3002 NOSIG
TAF OIII 212300Z 2200/2306 33004MPS CAVOK
       
OIIK 212300Z 29004KT CAVOK 16/M01 Q1017
OIIS 212300Z 09002KT CAVOK 18/M09 Q1017
OIKB 220000Z 33006KT CAVOK 28/17 Q1003 A2963
TAF OIKB 212300Z 2200/2306 34003MPS 4000 HZ NSC 
     BECMG 2207/2208 20007MPS 7000 
     BECMG 2214/2216 34003MPS 
     BECMG 2220/2222 4000 HZ
       
OIKK 220000Z 14006KT CAVOK 08/M15 Q1020 A3012
TAF OIKK 212300Z 2200/2306 34003MPS CAVOK 
     TEMPO 2207/2215 34008MPS
       
OIKO 212250Z 00000KT CAVOK 23/07 Q1003
OIKQ 220000Z 03006KT 7000 NSC 28/23 Q1003
OIMB 220000Z 12008KT CAVOK 09/M08 Q1017
OIMC 220000Z AUTO 00000KT //// // ////// 16/02 Q1012
OIMD 220000Z AUTO 13002KT //// // ////// 16/M04 Q1013
OIMM 220000Z 00000KT CAVOK 15/01 Q1016 A3003
TAF OIMM 212300Z 2200/2306 13004MPS CAVOK 
     TEMPO 2212/2218 06007MPS
       
OIMN 220000Z 00000KT CAVOK 11/01 Q1018
OIMQ 220000Z AUTO 06004KT //// // ////// 19/M01 Q1016
OINB 212000Z 18006KT CAVOK 23/21 Q1011
OINE 220000Z 00000KT CAVOK 19/10 Q1012
OING 220000Z 19006KT CAVOK 20/17 Q1013
OINN 220000Z 21004KT CAVOK 21/16 Q1011
OINR 220000Z 24004KT CAVOK 23/18 Q1010
OINZ 220000Z 17004KT CAVOK 19/18 Q1012
OISA 212300Z 00000KT CAVOK 09/M13 Q1023
OISF 220000Z 30006KT CAVOK 13/M08 Q1013
OISL 220000Z 00000KT CAVOK 17/04 Q1009
TAF OISL 212300Z 2200/2306 24003MPS CAVOK
       
OISS 220030Z 00000KT CAVOK 13/M04 Q1017 A3005
TAF OISS 212300Z 2200/2306 14004MPS CAVOK
       
OISY 220000Z 00000KT CAVOK 13/M07 Q1020
OITL 212350Z 25004KT 9999 FEW008 11/08 Q1019
OITM 220000Z 07010KT CAVOK 21/04 Q1017
OITP 212300Z AUTO 34002KT //// // ////// 19/19 Q1011
OITR 220000Z 27006KT 9999 FEW040 15/05 Q1017
TAF OITR 212300Z 2200/2306 24003MPS 8000 FEW035 SCT100 
     BECMG 2209/2210 FEW035CB SCT100 
     TEMPO 2210/2218 24008MPS TS SCT030CB SCT035 SCT100 
     BECMG 2218/2220 FEW035 SCT100
       
OITT 220030Z VRB02KT 9999 FEW030 19/02 Q1018 A3007
TAF OITT 212300Z 2200/2306 08004MPS 8000 FEW035 SCT100 
     BECMG 2210/2212 FEW035CB SCT100 
     TEMPO 2212/2218 08009MPS TS SCT035CB SCT100 
     BECMG 2300/2302 FEW035 SCT100
       
OITU 211951Z 27004KT 9999 SCT040 21/08 Q1019
OITZ 220000Z 09010KT CAVOK 16/M01 Q1019
OIYY 220000Z 21004KT CAVOK 16/M11 Q1018
OIZB 220000Z 33016KT CAVOK 24/01 Q1007
OIZH 220000Z 16004KT CAVOK 12/M08 Q1015 A3000
TAF OIZH 212300Z 2200/2306 17003MPS CAVOK 
     TEMPO 2215/2220 35006MPS
       
OIZI 220000Z 03004KT CAVOK 22/M10 Q1008
OIZJ 220000Z 35008KT 7000 NSC 29/14 Q1002
OIFM 220030Z 32006KT CAVOK 10/M08 Q1019 A3011
TAF OIFM 212300Z 2200/2306 16004MPS CAVOK 
     PROB30 2202/2206 4000 HZ NSC
       
OISF 220000Z 30006KT CAVOK 13/M08 Q1013
OIAH 220000Z 00000KT CAVOK 22/04 Q1010
OIAA 220000Z 13002KT CAVOK 26/22 Q1003
TAF OIAA 212300Z 2200/2306 13003MPS CAVOK 
     BECMG 2201/2202 2500 BR NSC 
     BECMG 2205/2206 8000 NSC 
     BECMG 2222/2224 34004MPS 
     PROB30 2302/2306 5000 HZ NSC
       
OIAG 212000Z 14006KT CAVOK 31/16 Q1003
OIAH 220000Z 00000KT CAVOK 22/04 Q1010
OIAI 212000Z 09006KT CAVOK 31/M02 Q1005
OIAM 220000Z 12006KT 8000 NSC 30/25 Q1003
OIAW 220000Z 00000KT 8000 NSC 25/17 Q1003
TAF OIAW 212300Z 2200/2306 14003MPS CAVOK
       
OIBB 212351Z 00000KT CAVOK 29/21 Q1003 A2963
OIBK 220000Z 00000KT CAVOK 29/22 Q1002
TAF OIBK 212300Z 2200/2306 33003MPS 6000 NSC 
     BECMG 2204/2206 11005MPS 
     BECMG 2216/2218 30003MPS 
     BECMG 2304/2306 11005MPS
       
OIBL 220000Z 09006KT CAVOK 27/06 Q1003
OIBP 220000Z 12004KT CAVOK 26/21 Q1001 A2957
OICC 212351Z 24004KT CAVOK 16/M11 Q1017 A3003
OICI 220000Z 12004KT CAVOK 21/M04 Q1016 A3002
TAF OICI 212300Z 2200/2306 06003MPS CAVOK 
     BECMG 2210/2212 32006MPS
       
OICJ 212250Z AUTO 33004KT //// // ////// 18/M05 Q1020
OICK 212350Z 12006KT CAVOK 20/M09 Q1015
OICS 212354Z 01002KT CAVOK 16/M00 Q1018
OIFK 212300Z 00000KT CAVOK 16/00 Q1014
OIFM 220030Z 32006KT CAVOK 10/M08 Q1019 A3011
TAF OIFM 212300Z 2200/2306 16004MPS CAVOK 
     PROB30 2202/2206 4000 HZ NSC
       
OIFS 220000Z 32002KT CAVOK 04/M08 Q1023
OIGG 220000Z 00000KT 1500 BR NSC 19/18 Q1011
OIGK 212250Z AUTO 13004KT //// // ////// 11/M02 Q1022
OIHH 212350Z 00000KT CAVOK 10/M07 Q1021
OIHM 211950Z 14004KT CAVOK 16/M05 Q1021
OIIE 220000Z 29004KT CAVOK 18/M05 Q1015
TAF OIIE 212300Z 2200/2306 30004MPS CAVOK
       
OIII 220030Z 33004KT CAVOK 22/M06 Q1017 A3002 NOSIG
TAF OIII 212300Z 2200/2306 33004MPS CAVOK
       
OIIK 212300Z 29004KT CAVOK 16/M01 Q1017
OIIS 212300Z 09002KT CAVOK 18/M09 Q1017
OIKB 220000Z 33006KT CAVOK 28/17 Q1003 A2963
TAF OIKB 212300Z 2200/2306 34003MPS 4000 HZ NSC 
     BECMG 2207/2208 20007MPS 7000 
     BECMG 2214/2216 34003MPS 
     BECMG 2220/2222 4000 HZ
       
OIKK 220000Z 14006KT CAVOK 08/M15 Q1020 A3012
TAF OIKK 212300Z 2200/2306 34003MPS CAVOK 
     TEMPO 2207/2215 34008MPS
       
OIKO 212250Z 00000KT CAVOK 23/07 Q1003
OIKQ 220000Z 03006KT 7000 NSC 28/23 Q1003
OIMB 220000Z 12008KT CAVOK 09/M08 Q1017
OIMC 220000Z AUTO 00000KT //// // ////// 16/02 Q1012
OIMD 220000Z AUTO 13002KT //// // ////// 16/M04 Q1013
OIMM 220000Z 00000KT CAVOK 15/01 Q1016 A3003
TAF OIMM 212300Z 2200/2306 13004MPS CAVOK 
     TEMPO 2212/2218 06007MPS
       
OIMN 220000Z 00000KT CAVOK 11/01 Q1018
OIMQ 220000Z AUTO 06004KT //// // ////// 19/M01 Q1016
OINB 212000Z 18006KT CAVOK 23/21 Q1011
OINE 220000Z 00000KT CAVOK 19/10 Q1012
OING 220000Z 19006KT CAVOK 20/17 Q1013
OINN 220000Z 21004KT CAVOK 21/16 Q1011
OINR 220000Z 24004KT CAVOK 23/18 Q1010
OINZ 220000Z 17004KT CAVOK 19/18 Q1012
OISA 212300Z 00000KT CAVOK 09/M13 Q1023
OISF 220000Z 30006KT CAVOK 13/M08 Q1013
OISL 220000Z 00000KT CAVOK 17/04 Q1009
TAF OISL 212300Z 2200/2306 24003MPS CAVOK
       
OISS 220030Z 00000KT CAVOK 13/M04 Q1017 A3005
TAF OISS 212300Z 2200/2306 14004MPS CAVOK
       
OISY 220000Z 00000KT CAVOK 13/M07 Q1020
OITL 212350Z 25004KT 9999 FEW008 11/08 Q1019
OITM 220000Z 07010KT CAVOK 21/04 Q1017
OITP 212300Z AUTO 34002KT //// // ////// 19/19 Q1011
OITR 220000Z 27006KT 9999 FEW040 15/05 Q1017
TAF OITR 212300Z 2200/2306 24003MPS 8000 FEW035 SCT100 
     BECMG 2209/2210 FEW035CB SCT100 
     TEMPO 2210/2218 24008MPS TS SCT030CB SCT035 SCT100 
     BECMG 2218/2220 FEW035 SCT100
       
OITT 220030Z VRB02KT 9999 FEW030 19/02 Q1018 A3007
TAF OITT 212300Z 2200/2306 08004MPS 8000 FEW035 SCT100 
     BECMG 2210/2212 FEW035CB SCT100 
     TEMPO 2212/2218 08009MPS TS SCT035CB SCT100 
     BECMG 2300/2302 FEW035 SCT100
       
OITU 211951Z 27004KT 9999 SCT040 21/08 Q1019
OITZ 220000Z 09010KT CAVOK 16/M01 Q1019
OIYY 220000Z 21004KT CAVOK 16/M11 Q1018
OIZB 220000Z 33016KT CAVOK 24/01 Q1007
OIZH 220000Z 16004KT CAVOK 12/M08 Q1015 A3000
TAF OIZH 212300Z 2200/2306 17003MPS CAVOK 
     TEMPO 2215/2220 35006MPS
       
OIZI 220000Z 03004KT CAVOK 22/M10 Q1008
OIZJ 220000Z 35008KT 7000 NSC 29/14 Q1002
OIIK 212300Z 29004KT CAVOK 16/M01 Q1017
OIAA 220000Z 13002KT CAVOK 26/22 Q1003
TAF OIAA 212300Z 2200/2306 13003MPS CAVOK 
     BECMG 2201/2202 2500 BR NSC 
     BECMG 2205/2206 8000 NSC 
     BECMG 2222/2224 34004MPS 
     PROB30 2302/2306 5000 HZ NSC
       
OIAG 212000Z 14006KT CAVOK 31/16 Q1003
OIAH 220000Z 00000KT CAVOK 22/04 Q1010
OIAI 212000Z 09006KT CAVOK 31/M02 Q1005
OIAM 220000Z 12006KT 8000 NSC 30/25 Q1003
OIAW 220000Z 00000KT 8000 NSC 25/17 Q1003
TAF OIAW 212300Z 2200/2306 14003MPS CAVOK
       
OIBB 212351Z 00000KT CAVOK 29/21 Q1003 A2963
OIBK 220000Z 00000KT CAVOK 29/22 Q1002
TAF OIBK 212300Z 2200/2306 33003MPS 6000 NSC 
     BECMG 2204/2206 11005MPS 
     BECMG 2216/2218 30003MPS 
     BECMG 2304/2306 11005MPS
       
OIBL 220000Z 09006KT CAVOK 27/06 Q1003
OIBP 220000Z 12004KT CAVOK 26/21 Q1001 A2957
OICC 212351Z 24004KT CAVOK 16/M11 Q1017 A3003
OICI 220000Z 12004KT CAVOK 21/M04 Q1016 A3002
TAF OICI 212300Z 2200/2306 06003MPS CAVOK 
     BECMG 2210/2212 32006MPS
       
OICJ 212250Z AUTO 33004KT //// // ////// 18/M05 Q1020
OICK 212350Z 12006KT CAVOK 20/M09 Q1015
OICS 212354Z 01002KT CAVOK 16/M00 Q1018
OIFK 212300Z 00000KT CAVOK 16/00 Q1014
OIFM 220030Z 32006KT CAVOK 10/M08 Q1019 A3011
TAF OIFM 212300Z 2200/2306 16004MPS CAVOK 
     PROB30 2202/2206 4000 HZ NSC
       
OIFS 220000Z 32002KT CAVOK 04/M08 Q1023
OIGG 220000Z 00000KT 1500 BR NSC 19/18 Q1011
OIGK 212250Z AUTO 13004KT //// // ////// 11/M02 Q1022
OIHH 212350Z 00000KT CAVOK 10/M07 Q1021
OIHM 211950Z 14004KT CAVOK 16/M05 Q1021
OIIE 220000Z 29004KT CAVOK 18/M05 Q1015
TAF OIIE 212300Z 2200/2306 30004MPS CAVOK
       
OIII 220030Z 33004KT CAVOK 22/M06 Q1017 A3002 NOSIG
TAF OIII 212300Z 2200/2306 33004MPS CAVOK
       
OIIK 212300Z 29004KT CAVOK 16/M01 Q1017
OIIS 212300Z 09002KT CAVOK 18/M09 Q1017
OIKB 220000Z 33006KT CAVOK 28/17 Q1003 A2963
TAF OIKB 212300Z 2200/2306 34003MPS 4000 HZ NSC 
     BECMG 2207/2208 20007MPS 7000 
     BECMG 2214/2216 34003MPS 
     BECMG 2220/2222 4000 HZ
       
OIKK 220000Z 14006KT CAVOK 08/M15 Q1020 A3012
TAF OIKK 212300Z 2200/2306 34003MPS CAVOK 
     TEMPO 2207/2215 34008MPS
       
OIKO 212250Z 00000KT CAVOK 23/07 Q1003
OIKQ 220000Z 03006KT 7000 NSC 28/23 Q1003
OIMB 220000Z 12008KT CAVOK 09/M08 Q1017
OIMC 220000Z AUTO 00000KT //// // ////// 16/02 Q1012
OIMD 220000Z AUTO 13002KT //// // ////// 16/M04 Q1013
OIMM 220000Z 00000KT CAVOK 15/01 Q1016 A3003
TAF OIMM 212300Z 2200/2306 13004MPS CAVOK 
     TEMPO 2212/2218 06007MPS
       
OIMN 220000Z 00000KT CAVOK 11/01 Q1018
OIMQ 220000Z AUTO 06004KT //// // ////// 19/M01 Q1016
OINB 212000Z 18006KT CAVOK 23/21 Q1011
OINE 220000Z 00000KT CAVOK 19/10 Q1012
OING 220000Z 19006KT CAVOK 20/17 Q1013
OINN 220000Z 21004KT CAVOK 21/16 Q1011
OINR 220000Z 24004KT CAVOK 23/18 Q1010
OINZ 220000Z 17004KT CAVOK 19/18 Q1012
OISA 212300Z 00000KT CAVOK 09/M13 Q1023
OISF 220000Z 30006KT CAVOK 13/M08 Q1013
OISL 220000Z 00000KT CAVOK 17/04 Q1009
TAF OISL 212300Z 2200/2306 24003MPS CAVOK
       
OISS 220030Z 00000KT CAVOK 13/M04 Q1017 A3005
TAF OISS 212300Z 2200/2306 14004MPS CAVOK
       
OISY 220000Z 00000KT CAVOK 13/M07 Q1020
OITL 212350Z 25004KT 9999 FEW008 11/08 Q1019
OITM 220000Z 07010KT CAVOK 21/04 Q1017
OITP 212300Z AUTO 34002KT //// // ////// 19/19 Q1011
OITR 220000Z 27006KT 9999 FEW040 15/05 Q1017
TAF OITR 212300Z 2200/2306 24003MPS 8000 FEW035 SCT100 
     BECMG 2209/2210 FEW035CB SCT100 
     TEMPO 2210/2218 24008MPS TS SCT030CB SCT035 SCT100 
     BECMG 2218/2220 FEW035 SCT100
       
OITT 220030Z VRB02KT 9999 FEW030 19/02 Q1018 A3007
TAF OITT 212300Z 2200/2306 08004MPS 8000 FEW035 SCT100 
     BECMG 2210/2212 FEW035CB SCT100 
     TEMPO 2212/2218 08009MPS TS SCT035CB SCT100 
     BECMG 2300/2302 FEW035 SCT100
       
OITU 211951Z 27004KT 9999 SCT040 21/08 Q1019
OITZ 220000Z 09010KT CAVOK 16/M01 Q1019
OIYY 220000Z 21004KT CAVOK 16/M11 Q1018
OIZB 220000Z 33016KT CAVOK 24/01 Q1007
OIZH 220000Z 16004KT CAVOK 12/M08 Q1015 A3000
TAF OIZH 212300Z 2200/2306 17003MPS CAVOK 
     TEMPO 2215/2220 35006MPS
       
OIZI 220000Z 03004KT CAVOK 22/M10 Q1008
OIZJ 220000Z 35008KT 7000 NSC 29/14 Q1002
OING 220000Z 19006KT CAVOK 20/17 Q1013
OIHH 212350Z 00000KT CAVOK 10/M07 Q1021
OICI 220000Z 12004KT CAVOK 21/M04 Q1016 A3002
TAF OICI 212300Z 2200/2306 06003MPS CAVOK 
     BECMG 2210/2212 32006MPS
       
OIZI 220000Z 03004KT CAVOK 22/M10 Q1008
OIZJ 220000Z 35008KT 7000 NSC 29/14 Q1002
OINE 220000Z 00000KT CAVOK 19/10 Q1012
OIKK 220000Z 14006KT CAVOK 08/M15 Q1020 A3012
TAF OIKK 212300Z 2200/2306 34003MPS CAVOK 
     TEMPO 2207/2215 34008MPS
       
OICK 212350Z 12006KT CAVOK 20/M09 Q1015
OIBK 220000Z 00000KT CAVOK 29/22 Q1002
TAF OIBK 212300Z 2200/2306 33003MPS 6000 NSC 
     BECMG 2204/2206 11005MPS 
     BECMG 2216/2218 30003MPS 
     BECMG 2304/2306 11005MPS
       
OISL 220000Z 00000KT CAVOK 17/04 Q1009
TAF OISL 212300Z 2200/2306 24003MPS CAVOK
       
OIAM 220000Z 12006KT 8000 NSC 30/25 Q1003
OIMM 220000Z 00000KT CAVOK 15/01 Q1016 A3003
TAF OIMM 212300Z 2200/2306 13004MPS CAVOK 
     TEMPO 2212/2218 06007MPS
       
OIII 220030Z 33004KT CAVOK 22/M06 Q1017 A3002 NOSIG
TAF OIII 212300Z 2200/2306 33004MPS CAVOK
       
OINN 220000Z 21004KT CAVOK 21/16 Q1011
OITP 212300Z AUTO 34002KT //// // ////// 19/19 Q1011
OINR 220000Z 24004KT CAVOK 23/18 Q1010
OIGG 220000Z 00000KT 1500 BR NSC 19/18 Q1011
OITM 220000Z 07010KT CAVOK 21/04 Q1017
OICS 212354Z 01002KT CAVOK 16/M00 Q1018
OIMC 220000Z AUTO 00000KT //// // ////// 16/02 Q1012
OINZ 220000Z 17004KT CAVOK 19/18 Q1012
OIIS 212300Z 09002KT CAVOK 18/M09 Q1017
OICC 212351Z 24004KT CAVOK 16/M11 Q1017 A3003
OIAI 212000Z 09006KT CAVOK 31/M02 Q1005
OIFS 220000Z 32002KT CAVOK 04/M08 Q1023
OISS 220030Z 00000KT CAVOK 13/M04 Q1017 A3005
TAF OISS 212300Z 2200/2306 14004MPS CAVOK
       
OITT 220030Z VRB02KT 9999 FEW030 19/02 Q1018 A3007
TAF OITT 212300Z 2200/2306 08004MPS 8000 FEW035 SCT100 
     BECMG 2210/2212 FEW035CB SCT100 
     TEMPO 2212/2218 08009MPS TS SCT035CB SCT100 
     BECMG 2300/2302 FEW035 SCT100
       
OITR 220000Z 27006KT 9999 FEW040 15/05 Q1017
TAF OITR 212300Z 2200/2306 24003MPS 8000 FEW035 SCT100 
     BECMG 2209/2210 FEW035CB SCT100 
     TEMPO 2210/2218 24008MPS TS SCT030CB SCT035 SCT100 
     BECMG 2218/2220 FEW035 SCT100
       
OISY 220000Z 00000KT CAVOK 13/M07 Q1020
OIYY 220000Z 21004KT CAVOK 16/M11 Q1018
OIZB 220000Z 33016KT CAVOK 24/01 Q1007
OIZH 220000Z 16004KT CAVOK 12/M08 Q1015 A3000
TAF OIZH 212300Z 2200/2306 17003MPS CAVOK 
     TEMPO 2215/2220 35006MPS
       
OITZ 220000Z 09010KT CAVOK 16/M01 Q1019